Regional Weather Roundup
Issued by NWS

Home | Current Version | Previous Version | Graphics & Text | Print | Product List | Glossary On
Versions: 1 2 3 4 5 6 7 8 9 10 11 12 13 14 15 16 17 18 19 20 21 22 23 24 25 26 27 28 29 30 31 32 33 34 35 36 37 38 39 40 41 42 43 44 45 46 47 48 49 50
000
ASUS45 KBOU 221607
RWRCO

WEATHER ROUNDUP FOR COLORADO
NATIONAL WEATHER SERVICE DENVER/BOULDER CO
1000 AM MDT FRI MAY 22 2015

NOTE: "FAIR" INDICATES FEW OR NO CLOUDS BELOW 12000 FEET WITH NO
SIGNIFICANT WEATHER AND/OR OBSTRUCTIONS TO VISIBILITY.

COZ001>005-013-030-031-221700-
...NORTHWEST COLORADO...

CITY           SKY/WX    TMP DP  RH WIND       PRES   REMARKS
CRAIG          LGT RAIN  46  41  82 SW10      30.05R
HAYDEN         CLOUDY    43  36  75 W7        30.05R
MEEKER         LGT RAIN  46  40  79 CALM      30.05F
MOUNT WERNER   NOT AVBL
STEAMBOAT SPGS CLOUDY    43  41  93 CALM      30.06R
WALDEN         CLOUDY    41  36  81 S9        30.10F
$$

COZ006>008-011-221700-
...WEST CENTRAL VALLEYS...

CITY           SKY/WX    TMP DP  RH WIND       PRES   REMARKS
GRAND JUNCTION PTSUNNY   56  46  69 SE8       29.97F
MONTROSE       SUNNY     57  42  57 N7        30.03F
EAGLE          CLOUDY    46  41  81 CALM      30.09S
RIFLE          CLOUDY    50  43  77 CALM      30.04R
DELTA          MOSUNNY   59  44  55 CALM      30.01F
NUCLA          SUNNY     55  43  62 N6        30.05F
$$

COZ017>023-064>068-221700-
...SOUTHWEST COLORADO...

CITY           SKY/WX    TMP DP  RH WIND       PRES   REMARKS
DURANGO        MOSUNNY   52  42  69 E9        30.10F
CORTEZ         SUNNY     60  39  45 SE14G22   30.03F
PAGOSA SPRINGS CLOUDY    47  38  71 CALM      30.16F
TELLURIDE      PTSUNNY   46  29  53 SE10      30.16S
WOLF CREEK PAS NOT AVBL
$$

COZ009-010-012-014-032>034-037-058>063-221700-
...CENTRAL COLORADO...

CITY           SKY/WX    TMP DP  RH WIND       PRES   REMARKS
ASPEN          PTSUNNY   47  37  68 N3        30.07R
BUENA VISTA    MOSUNNY   46  38  73 SE6       30.07S
COPPER MTN     SNOW      34  30  86 SW6       30.19S VSB 1/4 WCI  29
BERTHOUD PASS  CLOUDY    23  16  74 W23G33    30.18R WCI   7
COTTONWOOD PAS CLOUDY    43  36  75 SE9       30.12S
GUNNISON       SUNNY     50  34  53 NW5       30.11S
KREMMLING      CLOUDY    43  32  65 CALM      30.08S
LEADVILLE      PTSUNNY   41  29  62 N9        30.11R
MONARCH PASS     N/A     30  30 100 MISG      30.29S
SALIDA         MOSUNNY   54  37  52 S7G16     30.13S
SUNLIGHT       LGT SNOW  36  34  93 CALM      30.19S
WILKERSON PASS FOG       32  32 100 SW9G17    30.17S VSB 1/4 WCI  24
$$

COZ069>075-221700-
...SAN LUIS VALLEY/SANGRE DE CRISTO MOUNTAINS...

CITY           SKY/WX    TMP DP  RH WIND       PRES   REMARKS
ALAMOSA        SUNNY     54  37  52 S13G20    30.11R
LA VETA PASS   SUNNY    N/A N/A N/A MISG      30.15R
SAGUACHE       PTSUNNY   45  37  76 SE10      30.13R
$$

COZ035-036-038>040-221700-
...NORTHERN COLORADO FRONT RANGE...

CITY           SKY/WX    TMP DP  RH WIND       PRES   REMARKS
DENVER INTL AP CLOUDY    49  46  90 SE7       29.99S
DMNS CITY PARK   N/A     51  47  88 NW8       29.99S
AURORA         LGT RAIN  49  48  95 NW6       30.00S
FRONT RANGE AP LGT RAIN  50  48  93 E10       30.00S
ERIE MUNI ARPT LGT RAIN  50  48  94 N6        30.00S
BOULDER MUN AP CLOUDY    48  48 100 N5        30.00S
CENTENNIAL     CLOUDY    48  46  93 NW7       30.00R
BROOMFIELD     CLOUDY    48  48 100 N9        30.01S
FORT COLLINS   CLOUDY    48  46  93 E9        30.03S
LONGMONT       LGT RAIN  52  49  90 NE5       30.02S
$$

COZ041-046-047-076>085-087-088-221700-
...PIKES PEAK/PALMER DIVIDE AND SOUTHERN FOOTHILLS...

CITY           SKY/WX    TMP DP  RH WIND       PRES   REMARKS
COLO. SPRINGS  PTSUNNY   49  45  86 S8        30.03S
A. F. ACADEMY  CLOUDY    46  46  99 S6        30.02R
ELLICOTT       NOT AVBL
FALCON         CLOUDY    48  43  84 S9        30.04S
FORT CARSON    CLOUDY    48  47  95 E7        30.01R
LIMON          CLOUDY    47  44  90 SE7       30.01S
MONUMENT HILL  NOT AVBL
TRINIDAD       SUNNY     59  42  53 SE7       30.02S
$$

COZ042>045-048>051-090-091-221700-
...NORTHEAST COLORADO...

CITY           SKY/WX    TMP DP  RH WIND       PRES   REMARKS
GREELEY ARPT   CLOUDY    46  45  93 SE15      30.02S
AKRON          LGT RAIN  46  45  96 SE17      30.04F
BURLINGTON     RAIN      48  46  93 SE20G29   30.04S FOG
WRAY           LGT RAIN N/A N/A N/A E12G18    30.08F
STERLING       LGT RAIN  48  46  93 SE13      30.06S
HOLYOKE        NOT AVBL
FORT MORGAN    LGT RAIN  47  45  93 E13       30.04F
$$

COZ086-089-092>099-221700-
...SOUTHEAST COLORADO...

CITY           SKY/WX    TMP DP  RH WIND       PRES   REMARKS
PUEBLO         PTSUNNY   55  47  74 VRB5      30.00S
LA JUNTA       SUNNY     59  49  69 W12       29.99S
LAMAR          PTSUNNY   60  49  66 S26G32    29.98F
SPRINGFIELD      N/A     54  47  77 S28       30.05F
$$



USA.gov is the U.S. government's official web portal to all federal, state and local government web resources and services.